FW9359 Weather Reports


Display with metric or nautical units.
time (UTC)temp
F
wind
direction
speed
MPH
gust
MPH
rain 1hr
in
rain 24hr
in
rain mn
in
humidity
%
barometer
mb
20260906110838 70 0 3.0 5.0 0.00 0.00 0.00 90 1022.9
20260906110334 70 356 0.0 0.0 0.00 0.00 0.00 90 1023.1
20260906105833 70 356 2.0 3.0 0.00 0.00 0.00 89 1023.0
20260906105329 70 68 0.0 0.0 0.00 0.00 0.00 89 1022.7
20260906104825 70 68 0.0 0.0 0.00 0.00 0.00 89 1022.7
20260906104323 70 86 1.0 1.0 0.00 0.00 0.00 90 1022.9
20260906103822 70 86 0.0 0.0 0.00 0.00 0.00 89 1022.6
20260906103320 70 86 0.0 0.0 0.00 0.00 0.00 89 1022.4
20260906102817 70 86 1.0 1.0 0.00 0.00 0.00 89 1022.6
20260906102315 70 86 0.0 0.0 0.00 0.00 0.00 89 1022.5
20260906101811 71 86 0.0 0.0 0.00 0.00 0.00 89 1022.2
20260906101306 71 86 0.0 0.0 0.00 0.00 0.00 89 1022.0
20260906100802 71 86 0.0 0.0 0.00 0.00 0.00 89 1022.2
20260906100301 71 86 0.0 0.0 0.00 0.00 0.00 89 1022.4
20260906095756 71 86 0.0 1.0 0.00 0.00 0.00 88 1022.5
20260906095251 71 86 0.0 0.0 0.00 0.00 0.00 88 1022.1
20260906094750 71 86 0.0 0.0 0.00 0.00 0.00 88 1022.2
20260906094245 71 86 0.0 0.0 0.00 0.00 0.00 88 1022.1
20260906093742 72 86 0.0 0.0 0.00 0.00 0.00 87 1022.4
20260906093237 72 86 0.0 0.0 0.00 0.00 0.00 87 1022.2
20260906092732 72 86 0.0 1.0 0.00 0.00 0.00 87 1022.2
20260906092232 72 86 0.0 0.0 0.00 0.00 0.00 87 1022.2
20260906091728 72 86 0.0 0.0 0.00 0.00 0.00 87 1022.4
20260906091224 72 86 0.0 0.0 0.00 0.00 0.00 87 1022.2
20260906090720 72 86 0.0 0.0 0.00 0.00 0.00 87 1021.9
20260906090219 72 86 0.0 0.0 0.00 0.00 0.00 87 1022.2
20260906085719 72 86 0.0 0.0 0.00 0.00 0.00 87 1022.2
20260906085217 72 86 0.0 0.0 0.00 0.00 0.00 87 1022.4
20260906084712 72 86 0.0 0.0 0.00 0.00 0.00 88 1022.2
20260906084207 72 86 0.0 0.0 0.00 0.00 0.00 88 1022.1
20260906083702 72 86 0.0 0.0 0.00 0.00 0.00 88 1022.4
20260906083157 72 86 0.0 0.0 0.00 0.00 0.00 88 1022.1
20260906082652 72 89 0.0 0.0 0.00 0.00 0.00 88 1021.9
20260906082147 72 89 0.0 0.0 0.00 0.00 0.00 88 1021.9
20260906081643 72 89 0.0 0.0 0.00 0.00 0.00 88 1022.1
20260906081132 73 89 0.0 0.0 0.00 0.00 0.00 88 1022.0
20260906080629 73 89 0.0 0.0 0.00 0.00 0.00 88 1022.0
20260906080125 73 89 0.0 1.0 0.00 0.00 0.00 88 1022.1
20260906075618 73 89 0.0 0.0 0.00 0.00 0.00 88 1022.1
20260906075113 73 89 0.0 0.0 0.00 0.00 0.00 87 1022.1
20260906074609 73 89 0.0 0.0 0.00 0.00 0.00 87 1021.9
20260906074107 73 89 1.0 1.0 0.00 0.00 0.00 87 1022.0
20260906073602 73 89 0.0 0.0 0.00 0.00 0.00 88 1022.0
20260906073058 73 89 0.0 0.0 0.00 0.00 0.00 88 1022.2
20260906072552 73 89 0.0 1.0 0.00 0.00 0.00 88 1022.1
20260906072049 73 89 0.0 0.0 0.00 0.00 0.00 88 1022.2
20260906071545 73 89 0.0 0.0 0.00 0.00 0.00 88 1022.2
20260906071039 73 89 0.0 1.0 0.00 0.00 0.00 88 1022.5
20260906070536 73 140 1.0 2.0 0.00 0.00 0.00 89 1022.5
20260906070032 73 213 0.0 0.0 0.00 0.00 0.00 89 1021.9
20260906065531 73 11 0.0 0.0 0.00 0.00 0.00 88 1022.1
20260906065027 73 12 2.0 2.0 0.00 0.00 0.00 88 1022.1
20260906064522 73 12 0.0 0.0 0.00 0.00 0.00 88 1022.0
20260906064017 73 18 0.0 1.0 0.00 0.00 0.00 87 1022.2
20260906063512 73 18 0.0 0.0 0.00 0.00 0.00 87 1022.2
20260906063008 73 18 1.0 1.0 0.00 0.00 0.00 87 1022.2
20260906062503 73 14 4.0 5.0 0.00 0.00 0.00 87 1022.4
20260906061957 73 31 2.0 2.0 0.00 0.00 0.00 87 1022.2
20260906061453 73 33 3.0 5.0 0.00 0.00 0.00 87 1022.5
20260906060947 73 17 1.0 1.0 0.00 0.00 0.00 88 1022.4
20260906060444 73 8 2.0 3.0 0.00 0.00 0.00 88 1021.9
20260906055941 72 26 0.0 0.0 0.00 0.00 0.00 89 1022.2
20260906055437 72 27 0.0 0.0 0.00 0.00 0.00 89 1022.2
20260906054932 72 27 1.0 2.0 0.00 0.00 0.00 90 1022.1
20260906054426 72 321 0.0 1.0 0.00 0.00 0.00 90 1022.1
20260906053922 72 3 0.0 0.0 0.00 0.00 0.00 90 1022.1
20260906053418 72 12 2.0 2.0 0.00 0.00 0.00 91 1022.1
20260906052914 72 7 1.0 2.0 0.00 0.00 0.00 91 1021.9
20260906052410 72 5 2.0 3.0 0.00 0.00 0.00 91 1021.8
20260906051907 72 12 0.0 0.0 0.00 0.00 0.00 91 1021.8
20260906051406 72 12 0.0 1.0 0.00 0.00 0.00 91 1021.9
20260906050903 72 11 3.0 3.0 0.00 0.00 0.00 92 1021.8
20260906050357 72 195 0.0 0.0 0.00 0.00 0.00 92 1021.6
20260906045856 72 13 2.0 2.0 0.00 0.00 0.00 92 1021.6
20260906045355 72 22 1.0 1.0 0.00 0.00 0.00 92 1021.9
20260906044852 72 22 0.0 0.0 0.00 0.00 0.00 92 1021.8
20260906044352 72 7 0.0 0.0 0.00 0.00 0.00 92 1021.7
20260906043847 72 22 3.0 3.0 0.00 0.00 0.00 92 1021.4
20260906043343 72 354 0.0 1.0 0.00 0.00 0.00 92 1021.6
20260906042838 72 12 3.0 5.0 0.00 0.00 0.00 92 1021.6
20260906042337 72 303 1.0 2.0 0.00 0.00 0.00 92 1021.7
20260906041833 72 12 1.0 1.0 0.00 0.00 0.00 92 1021.4
20260906041328 72 47 2.0 2.0 0.00 0.00 0.00 92 1021.3
20260906040823 72 14 2.0 2.0 0.00 0.00 0.00 91 1021.3
20260906040318 72 350 1.0 1.0 0.00 0.00 0.00 91 1021.3
20260906035813 72 19 2.0 3.0 0.00 0.00 0.00 91 1021.4
20260906035309 72 359 0.0 0.0 0.00 0.00 0.00 91 1021.1
20260906034804 72 11 1.0 1.0 0.00 0.00 0.00 91 1021.2
20260906034304 72 343 0.0 1.0 0.00 0.00 0.00 91 1021.4
20260906033800 72 266 3.0 5.0 0.00 0.00 0.00 90 1021.2
20260906033259 72 299 1.0 1.0 0.00 0.00 0.00 90 1021.2
20260906032755 72 324 1.0 2.0 0.00 0.00 0.00 90 1021.3
20260906032250 72 6 0.0 1.0 0.00 0.00 0.00 90 1021.3
20260906031745 72 249 2.0 3.0 0.00 0.00 0.00 90 1021.3
20260906031241 72 342 5.0 6.0 0.00 0.00 0.00 90 1021.3
20260906030740 72 8 2.0 2.0 0.00 0.00 0.00 90 1021.2
20260906030236 72 12 4.0 5.0 0.00 0.00 0.00 90 1021.3
20260906025735 72 13 1.0 2.0 0.00 0.00 0.00 90 1021.3
20260906025229 73 357 2.0 3.0 0.00 0.00 0.00 89 1021.0
20260906024728 73 5 4.0 5.0 0.00 0.00 0.00 89 1021.3
20260906024228 72 347 3.0 3.0 0.00 0.00 0.00 89 1021.3
20260906023724 73 297 3.0 3.0 0.00 0.00 0.00 89 1021.2
20260906023219 73 26 5.0 8.0 0.00 0.00 0.00 89 1021.2
20260906022714 73 21 3.0 3.0 0.00 0.00 0.00 88 1021.2
20260906022210 73 16 1.0 1.0 0.00 0.00 0.00 88 1021.4
20260906021706 73 9 1.0 1.0 0.00 0.00 0.00 88 1021.3
20260906021204 73 30 2.0 2.0 0.00 0.00 0.00 88 1021.4
20260906020659 73 9 2.0 2.0 0.00 0.00 0.00 88 1021.3
20260906020154 73 28 3.0 5.0 0.00 0.00 0.00 88 1021.5
20260906015648 73 44 3.0 3.0 0.00 0.00 0.00 88 1021.5
20260906015147 73 27 1.0 1.0 0.00 0.00 0.00 87 1021.6
20260906014647 73 356 1.0 1.0 0.00 0.00 0.00 87 1021.4
20260906014143 73 12 2.0 2.0 0.00 0.00 0.00 87 1021.4
20260906013639 73 12 2.0 2.0 0.00 0.00 0.00 87 1021.6
20260906013134 73 3 1.0 1.0 0.00 0.00 0.00 88 1021.3
20260906012633 73 24 2.0 2.0 0.00 0.00 0.00 88 1021.4
20260906012128 73 31 5.0 6.0 0.00 0.00 0.00 88 1021.5
20260906011624 73 14 5.0 7.0 0.00 0.00 0.00 88 1021.4
20260906011119 73 357 1.0 1.0 0.00 0.00 0.00 88 1021.3
20260906010614 73 263 2.0 2.0 0.00 0.00 0.00 87 1021.1
20260906010110 73 249 2.0 2.0 0.00 0.00 0.00 87 1020.8
20260906005610 73 72 1.0 1.0 0.00 0.00 0.00 87 1020.6
20260906005109 73 47 4.0 5.0 0.00 0.00 0.00 88 1020.9
20260906004608 73 27 3.0 5.0 0.00 0.00 0.00 88 1020.7
20260906004103 73 215 3.0 3.0 0.00 0.00 0.00 89 1020.7
20260906003558 73 29 2.0 2.0 0.00 0.00 0.00 89 1020.5
20260906003055 73 33 2.0 3.0 0.00 0.00 0.00 89 1020.6
20260906002555 73 231 2.0 3.0 0.00 0.00 0.00 89 1020.7
20260906002049 73 3 1.0 2.0 0.00 0.00 0.00 89 1020.7
20260906001545 73 33 3.0 5.0 0.00 0.00 0.00 89 1020.8
20260906001039 73 15 3.0 5.0 0.00 0.00 0.00 89 1020.5
20260906000535 73 16 6.0 7.0 0.00 0.00 0.00 88 1020.6
20260906000030 73 35 6.0 8.0 0.00 0.00 0.00 88 1020.6
20260905235524 73 346 4.0 8.0 0.00 0.00 0.00 88 1020.5
20260905235019 73 232 2.0 3.0 0.00 0.00 0.00 88 1020.6
20260905234515 73 359 3.0 6.0 0.00 0.00 0.00 88 1020.9
20260905234009 73 34 3.0 5.0 0.00 0.00 0.00 88 1020.6
20260905233504 73 31 5.0 7.0 0.00 0.00 0.00 88 1020.7
20260905233003 73 23 2.0 2.0 0.00 0.00 0.00 87 1020.6
20260905232459 73 16 4.0 5.0 0.00 0.00 0.00 87 1020.6
20260905231954 73 8 1.0 1.0 0.00 0.00 0.00 88 1020.5
20260905231450 73 354 6.0 7.0 0.00 0.00 0.00 87 1020.6
20260905230946 73 8 5.0 8.0 0.00 0.00 0.00 88 1020.5
20260905230445 73 8 3.0 3.0 0.00 0.00 0.00 87 1020.3
20260905225943 73 34 6.0 8.0 0.00 0.00 0.00 87 1020.5
20260905225438 73 38 3.0 5.0 0.00 0.00 0.00 87 1020.3
20260905224933 73 17 1.0 1.0 0.00 0.00 0.00 88 1020.5
20260905224429 73 37 2.0 2.0 0.00 0.00 0.00 88 1020.4
20260905223928 74 11 2.0 5.0 0.00 0.00 0.00 88 1020.4
20260905223426 74 356 4.0 5.0 0.00 0.00 0.00 87 1020.6
20260905222921 74 26 2.0 3.0 0.00 0.00 0.00 88 1020.7
20260905222420 74 43 4.0 5.0 0.00 0.00 0.00 87 1020.3
20260905221916 75 14 5.0 7.0 0.00 0.00 0.00 87 1020.4
20260905221413 75 19 3.0 3.0 0.00 0.00 0.00 87 1020.2
20260905220909 75 242 1.0 1.0 0.00 0.00 0.00 86 1020.2
20260905220404 76 86 1.0 1.0 0.00 0.00 0.00 86 1020.3
20260905215903 76 30 7.0 8.0 0.00 0.00 0.00 85 1020.2
20260905215359 76 24 2.0 5.0 0.00 0.00 0.00 85 1020.1
20260905214855 76 5 1.0 1.0 0.00 0.00 0.00 85 1020.1
20260905214351 77 19 3.0 5.0 0.00 0.00 0.00 84 1020.0
20260905213845 77 230 1.0 2.0 0.00 0.00 0.00 84 1019.9
20260905213342 77 34 2.0 2.0 0.00 0.00 0.00 85 1020.1
20260905212842 77 345 4.0 6.0 0.00 0.00 0.00 84 1019.8
20260905212336 77 2 3.0 3.0 0.00 0.00 0.00 85 1019.9
20260905211836 77 15 1.0 1.0 0.00 0.00 0.00 85 1019.9
20260905211332 77 14 3.0 6.0 0.00 0.00 0.00 85 1020.1
20260905210828 77 12 1.0 2.0 0.00 0.00 0.00 85 1020.0
20260905210328 78 64 3.0 3.0 0.00 0.00 0.00 84 1020.0
20260905205827 78 232 4.0 5.0 0.00 0.00 0.00 83 1020.0
20260905205321 78 34 2.0 2.0 0.00 0.00 0.00 82 1019.9
20260905204821 78 3 4.0 5.0 0.00 0.00 0.00 82 1019.9
20260905204317 78 41 2.0 2.0 0.00 0.00 0.00 80 1019.9
20260905203815 78 9 1.0 1.0 0.00 0.00 0.00 82 1019.9
20260905203311 78 245 2.0 2.0 0.00 0.00 0.00 81 1019.9
20260905202801 77 114 2.0 2.0 0.00 0.00 0.00 83 1020.2
20260905202256 77 41 5.0 8.0 0.00 0.00 0.00 85 1019.9
20260905201752 77 7 8.0 11.0 0.00 0.00 0.00 84 1020.0
20260905201247 78 29 4.0 5.0 0.00 0.00 0.00 82 1020.1
20260905200742 78 299 3.0 3.0 0.00 0.00 0.00 81 1020.1
20260905200238 78 4 4.0 6.0 0.00 0.00 0.00 80 1020.1
20260905195735 79 21 4.0 7.0 0.00 0.00 0.00 79 1019.9
20260905195230 79 25 4.0 5.0 0.00 0.00 0.00 79 1020.1
20260905194726 79 38 6.0 7.0 0.00 0.00 0.00 77 1020.1
20260905194225 79 212 2.0 2.0 0.00 0.00 0.00 79 1020.1
20260905193719 80 10 2.0 2.0 0.00 0.00 0.00 78 1020.1
20260905193214 79 41 2.0 2.0 0.00 0.00 0.00 79 1020.2
20260905192710 79 305 2.0 3.0 0.00 0.00 0.00 79 1020.3
20260905192206 78 20 2.0 3.0 0.00 0.00 0.00 81 1020.3
20260905191706 79 249 2.0 3.0 0.00 0.00 0.00 80 1020.2
20260905191204 78 53 3.0 5.0 0.00 0.00 0.00 81 1020.2
20260905190703 78 7 5.0 7.0 0.00 0.00 0.00 81 1020.3
20260905190202 78 7 1.0 2.0 0.00 0.00 0.00 83 1020.1
20260905185701 78 39 5.0 6.0 0.00 0.00 0.00 82 1020.1
20260905185155 79 29 7.0 9.0 0.00 0.00 0.00 81 1020.4
20260905184655 77 249 3.0 5.0 0.00 0.00 0.00 84 1020.4
20260905184153 78 353 3.0 5.0 0.00 0.00 0.00 82 1020.3
20260905183648 78 316 7.0 9.0 0.00 0.00 0.00 82 1020.4
20260905183143 78 10 4.0 7.0 0.00 0.00 0.00 83 1020.1
20260905182643 78 27 6.0 7.0 0.00 0.00 0.00 82 1020.2
20260905182143 79 32 5.0 6.0 0.00 0.00 0.00 82 1020.5
20260905181638 77 46 5.0 6.0 0.00 0.00 0.00 85 1020.3
20260905181137 78 2 5.0 7.0 0.00 0.00 0.00 84 1020.2
20260905180632 79 19 4.0 5.0 0.00 0.00 0.00 82 1020.2
20260905180127 79 38 3.0 5.0 0.00 0.00 0.00 81 1020.1
20260905175626 79 20 5.0 6.0 0.00 0.00 0.00 81 1020.1
20260905175121 78 33 1.0 1.0 0.00 0.00 0.00 83 1020.0
20260905174611 77 14 5.0 6.0 0.00 0.00 0.00 83 1020.1
20260905174106 77 24 2.0 2.0 0.00 0.00 0.00 84 1020.0
20260905173603 78 3 2.0 2.0 0.00 0.00 0.00 83 1020.3
20260905173058 79 20 1.0 1.0 0.00 0.00 0.00 82 1020.0
20260905172556 79 12 3.0 5.0 0.00 0.00 0.00 82 1020.1
20260905172052 78 231 2.0 3.0 0.00 0.00 0.00 83 1020.0
20260905171548 79 37 2.0 3.0 0.00 0.00 0.00 81 1020.4
20260905171044 78 67 2.0 2.0 0.00 0.00 0.00 82 1020.5
20260905170541 77 6 2.0 3.0 0.00 0.00 0.00 85 1020.2
20260905170036 77 15 2.0 2.0 0.00 0.00 0.00 85 1020.4
20260905165530 77 300 2.0 2.0 0.00 0.00 0.00 86 1020.5
20260905165026 76 20 2.0 2.0 0.00 0.00 0.00 87 1020.4
20260905164520 77 39 1.0 1.0 0.00 0.00 0.00 86 1020.4
20260905164015 77 28 2.0 3.0 0.00 0.00 0.00 86 1020.6
20260905163511 77 22 4.0 5.0 0.00 0.00 0.00 86 1020.5
20260905163007 78 29 3.0 3.0 0.00 0.00 0.00 85 1020.6
20260905162502 78 31 2.0 2.0 0.00 0.00 0.00 85 1020.4
20260905161957 77 13 3.0 3.0 0.00 0.00 0.00 86 1020.3
20260905161456 76 30 3.0 5.0 0.00 0.00 0.00 87 1020.3
20260905160954 76 34 2.0 3.0 0.00 0.00 0.00 87 1020.2
20260905160448 77 9 5.0 6.0 0.00 0.00 0.00 85 1020.1
20260905155948 78 5 3.0 3.0 0.00 0.00 0.00 85 1019.9
20260905155443 78 247 2.0 3.0 0.00 0.00 0.00 84 1019.9
20260905154941 78 24 2.0 3.0 0.00 0.00 0.00 85 1019.9
20260905154437 77 14 1.0 1.0 0.00 0.00 0.00 87 1020.2
20260905153932 77 29 2.0 3.0 0.00 0.00 0.00 88 1020.0
20260905153428 76 18 0.0 1.0 0.00 0.00 0.00 88 1020.1
20260905152928 77 19 5.0 6.0 0.00 0.00 0.00 87 1019.8
20260905152428 77 16 3.0 3.0 0.00 0.00 0.00 88 1019.7
20260905151923 76 10 3.0 3.0 0.00 0.00 0.00 89 1019.8
20260905151419 76 32 4.0 6.0 0.00 0.00 0.00 89 1019.9
20260905150918 76 89 1.0 2.0 0.00 0.00 0.00 89 1019.7
20260905150419 76 12 5.0 6.0 0.00 0.00 0.00 89 1019.7
20260905145915 76 357 2.0 2.0 0.00 0.00 0.00 90 1019.6
20260905145410 76 14 8.0 10.0 0.00 0.00 0.00 89 1019.6
20260905144909 76 30 5.0 7.0 0.00 0.00 0.00 89 1019.6
20260905144405 76 17 1.0 2.0 0.00 0.00 0.00 90 1019.4
20260905143904 76 20 1.0 1.0 0.00 0.00 0.00 90 1019.5
20260905143358 76 39 4.0 6.0 0.00 0.00 0.00 89 1019.5
20260905142858 77 25 3.0 3.0 0.00 0.00 0.00 89 1019.5
20260905142356 77 27 2.0 2.0 0.00 0.00 0.00 89 1019.5
20260905141852 77 10 0.0 0.0 0.00 0.00 0.00 89 1019.4
20260905141347 77 28 3.0 3.0 0.00 0.00 0.00 90 1019.3
20260905140844 76 350 1.0 1.0 0.00 0.00 0.00 91 1019.4
20260905140344 76 43 2.0 3.0 0.00 0.00 0.00 91 1019.2
20260905135842 75 12 3.0 5.0 0.00 0.00 0.00 92 1019.2
20260905135338 75 30 1.0 1.0 0.00 0.00 0.00 93 1019.5
20260905134833 75 25 2.0 2.0 0.00 0.00 0.00 93 1019.3
20260905134331 75 355 3.0 5.0 0.00 0.00 0.00 93 1019.4
20260905133827 75 28 3.0 3.0 0.00 0.00 0.00 94 1019.5
20260905133322 75 12 4.0 8.0 0.00 0.00 0.00 94 1019.6
20260905132821 75 19 1.0 2.0 0.00 0.00 0.00 94 1019.6
20260905132317 75 20 2.0 3.0 0.00 0.00 0.00 95 1019.4
20260905131811 75 17 1.0 1.0 0.00 0.00 0.00 95 1019.3
20260905131307 75 26 1.0 1.0 0.00 0.00 0.00 96 1019.2
20260905130801 74 30 0.0 0.0 0.00 0.00 0.00 96 1018.9
20260905130300 74 41 2.0 5.0 0.00 0.00 0.00 96 1019.2
20260905125755 74 6 1.0 2.0 0.00 0.00 0.00 97 1018.9
20260905125250 74 4 1.0 1.0 0.00 0.00 0.00 97 1019.0
20260905124747 74 27 0.0 0.0 0.00 0.00 0.00 97 1018.9
20260905124243 73 27 0.0 0.0 0.00 0.00 0.00 97 1018.9
20260905123737 73 27 0.0 0.0 0.00 0.00 0.00 97 1018.7
20260905123235 73 27 1.0 2.0 0.00 0.00 0.00 97 1018.6
20260905122735 73 27 0.0 0.0 0.00 0.00 0.00 97 1018.5
20260905122229 73 26 0.0 0.0 0.00 0.00 0.00 98 1018.6
20260905121724 73 26 0.0 0.0 0.00 0.00 0.00 98 1018.2
20260905121220 73 29 0.0 0.0 0.00 0.00 0.00 98 1018.5
20260905120719 73 30 0.0 0.0 0.00 0.00 0.00 98 1018.5
20260905120214 73 39 0.0 0.0 0.00 0.00 0.00 98 1018.3
20260905115714 73 43 0.0 1.0 0.00 0.00 0.00 98 1018.1
20260905115209 73 332 0.0 0.0 0.00 0.00 0.00 98 1018.0
20260905114708 73 28 1.0 1.0 0.00 0.00 0.00 98 1018.1
20260905114206 73 27 0.0 0.0 0.00 0.00 0.00 98 1018.0
20260905113701 73 34 0.0 0.0 0.00 0.00 0.00 97 1017.8
20260905113157 73 32 2.0 2.0 0.00 0.00 0.00 97 1017.9
20260905112656 73 28 0.0 0.0 0.00 0.00 0.00 97 1018.1
20260905112152 73 28 1.0 2.0 0.00 0.00 0.00 97 1017.8
20260905111652 73 19 0.0 0.0 0.00 0.00 0.00 97 1017.8
20260905111151 73 19 0.0 0.0 0.00 0.00 0.00 97 1017.6